Вернуться в каталог

TITAN 3C TRANSTAGE R/B

АктивенMEO
NORAD 10942·ROCKET BODY·🇺🇸 United States

Запущен Jun 10, 1978 с Cape Canaveral Space Force Station

Loading…

Ближайшие Пролёты (ближайшие 24 часа)

TLE

СвежийSource: Space-Track

Эпоха: Sep 13, 2026, 22:52 UTC

1 10942U 78058B   26256.95331142 -.00000005  00000-0  00000-0 0  9999
2 10942  10.3310  19.4332 1420881 133.8831 238.8250  0.99625867 27659

Отслеживайте TITAN 3C TRANSTAGE R/B в реальном времени с AllMySat

Download on the App Store